Regional Weather Roundup
Issued by NWS Northern Indiana

Home | Current Version | Previous Version | Graphics & Text | Print | Product List | Glossary On
Versions: 1 2 3 4 5 6 7 8 9 10 11 12 13 14 15 16 17 18 19 20 21 22 23 24 25 26 27 28 29 30 31 32 33 34 35 36 37 38 39 40 41 42 43 44 45 46 47 48 49 50
000
ASUS43 KIWX 261800
RWRIWX

KIWX WEATHER ROUNDUP
NATIONAL WEATHER SERVICE NORTHERN INDIANA
100 PM EST THU FEB 26 2015

NOTE: "FAIR" INDICATES FEW OR NO CLOUDS BELOW 12,000 FEET WITH NO
SIGNIFICANT WEATHER AND/OR OBSTRUCTIONS TO VISIBILITY.

* THESE STATIONS ARE NOT UNDER NWS QUALITY CONTROL. THEY ALSO MAY NOT
  REPORT WEATHER SUCH AS PRECIPITATION OR FOG.

INZ001>027-261900-
NORTHERN INDIANA

CITY           SKY/WX    TMP DP  RH WIND       PRES   REMARKS
GARY*          CLOUDY    19   7  58 N14G25    30.24R WCI   6
KNOX*            N/A     18  -4  38 N10       30.19S WCI   6
SOUTH BEND     MOSUNNY   16   5  62 NW9       30.19S WCI   4
6HR MIN TEMP:  11; 6HR MAX TEMP:  16; 6HR PCP:  0.02;

ELKHART*       SUNNY     16   3  57 N6        30.18S WCI   7
GOSHEN         CLOUDY    15   6  67 N6        30.17R WCI   6
6HR MIN TEMP:  12; 6HR MAX TEMP:  15; 6HR PCP: TRACE;

MONTICELLO*    FLURRIES  18   9  66 CALM      30.17S
6HR MIN TEMP:  15; 6HR MAX TEMP:  18;

ANGOLA*        MOSUNNY   14   3  62 VRB3      30.14S
FORT WAYNE     PTSUNNY   16   5  62 N8        30.16R WCI   5
6HR MIN TEMP:  11; 6HR MAX TEMP:  16; 6HR PCP:  0.02;

PERU/GRISSOM   CLOUDY    17   6  62 NE10      30.14S WCI   5
6HR MIN TEMP:  14; 6HR MAX TEMP:  17; 6HR PCP: TRACE;


$$
INZ028>050-261900-
CENTRAL INDIANA

CITY           SKY/WX    TMP DP  RH WIND       PRES   REMARKS
LAFAYETTE      CLOUDY    19  12  74 N10       30.18R WCI   7
6HR MIN TEMP:  17; 6HR MAX TEMP:  19; 6HR PCP: TRACE;

KOKOMO*        SUNNY     19   9  63 NE10      30.15S WCI   8
6HR MIN TEMP:  12; 6HR MAX TEMP:  19;

MUNCIE*        CLOUDY    16   7  67 NE10      30.12R WCI   4
6HR MIN TEMP:  12; 6HR MAX TEMP:  16; 6HR PCP: TRACE;

INDIANAPOLIS   PTSUNNY   20  10  65 N8        30.12R WCI  10
6HR MIN TEMP:  16; 6HR MAX TEMP:  20; 6HR PCP:  0.03;


$$
MIZ043>046-050>051-056>058-064>065-071>073-077>080-261900-
SOUTHWEST LOWER MICHIGAN

CITY           SKY/WX    TMP DP  RH WIND       PRES   REMARKS
BATTLE CREEK   MOSUNNY   15   2  56 VRB3      30.16F
6HR MIN TEMP:   7; 6HR MAX TEMP:  15; 6HR PCP: TRACE;

BENTON HARBOR  SUNNY     12   5  73 N8        30.22R WCI   0
6HR MIN TEMP:   8; 6HR MAX TEMP:  13; 6HR PCP: TRACE;

COLDWATER*     PTSUNNY   13   2  63 N5        30.15S WCI   5
6HR MIN TEMP:  10; 6HR MAX TEMP:  13;

HILLSDALE*     MOSUNNY   13   3  64 N5        30.12R WCI   5
HOLLAND        SUNNY     12  -3  51 N6        30.23S WCI   3
6HR MIN TEMP:   7; 6HR MAX TEMP:  12; 6HR PCP: TRACE;

GRAND RAPIDS   PTSUNNY   12  -4  48 VRB3      30.20F
6HR MIN TEMP:   5; 6HR MAX TEMP:  13; 6HR PCP: TRACE;

KALAMAZOO      MOSUNNY   14   2  58 N3        30.18S
6HR MIN TEMP:   8; 6HR MAX TEMP:  14; 6HR PCP: TRACE;

STURGIS*       PTSUNNY   12   5  73 CALM      30.15S
THREE RIVERS*  FAIR      14   4  65 CALM      30.18S
6HR MIN TEMP:   9; 6HR MAX TEMP:  14;


$$
OHZ001>008-015>018-024>025-261900-
NORTHWEST OHIO

CITY           SKY/WX    TMP DP  RH WIND       PRES   REMARKS
DEFIANCE       PTSUNNY   14   4  64 NE12      30.16S WCI   0
6HR MIN TEMP:  11; 6HR MAX TEMP:  15; 6HR PCP: TRACE;

FINDLAY        LGT SNOW  14   5  67 NE16      30.12S WCI  -2
6HR MIN TEMP:  11; 6HR MAX TEMP:  14; 6HR PCP: TRACE;

TOLEDO EXPRESS CLOUDY    14   6  70 VRB7      30.15S HAZE    WCI   4
6HR MIN TEMP:   8; 6HR MAX TEMP:  14; 6HR PCP:  0.03;

TOLEDO METCALF LGT SNOW  14   4  64 NE12      30.17S WCI   0
6HR MIN TEMP:   9; 6HR MAX TEMP:  15; 6HR PCP: TRACE;

LIMA           LGT SNOW  13   5  70 N15       30.10R WCI  -3
6HR MIN TEMP:  11; 6HR MAX TEMP:  14; 6HR PCP: TRACE;


$$
AND FOR LAKE MICHIGAN COASTAL AND OPEN LAKE BUOY OBSERVATIONS

STATION/POSITION TEMP    WIND        PRES    VSBY  WAVE
                 AIR SEA DIR/SP/G                  HT/PER
                 (F)     (DEG/KT/KT) (MB)    (MI)  (FT/S)
CALUMET HARBOR    17     360/ 12/ 20 1022.6R
MICHIGAN CITY     12      20/ 13/ 16   N/A
SAINT JOSEPH      11     350/ 10/ 14 1023.7F

$$
&&


USA.gov is the U.S. government's official web portal to all federal, state and local government web resources and services.